SCP
0 0 0 0 0 0 0 0 0 0 0 0 0 0 0 0 0 0 0 0 0 0 0 0 -0 0 0 0 0 0 0 0
0 0 0 0 0 0 0 0 0 0 0 0 0 0 0 0 0 0 0 0 0 0 0 0 0 -0 -0 -0 -0 0 0 0
0 0 0 0 0 0 0 0 0 0 0 0 0 0 0 0 0 0 0 0 0 0 0 -0 0 -0 -0 -0 -0 -0 -0 -0
0 0 0 0 0 0 0 0 0 0 0 0 0 0 0 0 0 0 0 0 0 -0 -0 -0 -0 -0 -0 -0 -0 -0 0 0
0 0 0 0 0 0 0 0 0 0 0 0 0 0 0 0 0 0 0 0 -0 -0 -0 -0 -0 -0 -0 -0 -0 -0 0 0
0 0 0 0 0 0 0 0 0 0 0 0 0 0 0 0 0 0 0 0 0 0 -0 -0 -0 -0 -0 -0 -0 -0 -0 -0
0 0 0 0 0 0 0 0 0 0 0 0 0 0 0 0 0 0 0 0 0 0 0 0 0 0 0 0 0 0 0 0
0 0 0 0 0 0 0 0 0 0 0 0 0 0 0 0 0 0 0 0 0 0 0 0 0 -0 0 0 0 0 0 0
0 0 0 0 0 0 0 0 0 0 0 0 0 0 0 0 0 0 0 0 0 0 0 0 0 -0 -0 0 0 0 0 0
0 0 0 0 0 0 0 0 0 0 0 0 0 0 0 0 0 0 0 0 0 0 0 0 0 -0 -0 0 0 0 0 0
0 0 0 0 0 0 0 0 0 0 0 0 0 0 0 0 0 0 0 0 0 0 0 0 0 -0 0 0 0 0 0 0
0 0 0 0 0 0 0 0 0 0 0 0 0 0 0 0 0 0 0 0 0 0 0 0 0 0 0 0 0 0 0 0
0 0 0 0 0 0 0 0 0 0 0 0 0 0 0 0 0 0 0 0 0 0 0 0 0 0 0 0 0 0 0 0
0 0 0 0 0 0 0 0 0 0 0 0 0 0 0 0 0 0 0 0 0 0 0 0 0 0 0 0 -0 0 0 0
0 0 0 0 0 0 0 0 0 0 0 0 0 0 0 0 0 0 0 0 0 0 0 -0 -0 0 0 0 0 0 0 0
0 0 0 0 0 0 0 0 0 0 0 0 0 0 0 0 0 0 0 0 0 0 -0 -0 -0 -0 -0 -0 0 0 0 0
0 0 0 0 0 0 0 0 0 0 0 0 0 0 0 0 0 0 0 0 0 -0 -0 0 -0 -0 -0 -0 -0 0 0 0
0 0 0 0 0 0 0 0 0 0 0 0 0 0 0 0 0 0 0 0 0 0 0 -0 0 -0 -0 0 0 0 0 0
0 0 0 0 0 0 0 0 0 0 0 0 0 0 0 0 0 0 0 0 0 0 0 0 0 0 0 0 0 0 0 0
0 0 0 0 0 0 0 0 0 0 0 0 0 0 0 0 0 0 0 0 -0 0 0 0 0 0 0 0 0 0 0 0
Wind_Speed_500mb
23 12 6 4 3 3 3 2 4 6 8 10 13 15 19 23 27 31 35 38 43 48 51 53 54 54 55 55 55 56 56 56
28 20 16 15 11 9 6 3 1 3 9 13 18 23 27 31 35 38 40 43 47 51 56 59 64 68 72 72 72 72 70 67
34 29 26 21 18 15 12 6 4 10 16 21 25 29 34 38 41 45 47 49 53 58 63 69 74 77 81 83 82 85 87 86
42 41 32 28 24 21 16 10 8 14 21 27 34 38 41 46 49 51 55 59 65 74 82 88 91 92 89 88 90 89 89 89
50 44 36 33 27 23 20 17 17 21 26 33 39 42 46 50 52 54 59 67 75 83 90 94 97 96 95 93 90 89 90 93
53 45 41 36 29 26 25 26 29 31 33 38 44 48 51 55 56 59 66 75 81 86 90 92 93 94 92 92 94 95 99 100
45 43 41 35 33 30 33 38 39 38 42 46 51 52 57 59 60 67 76 79 85 87 89 89 89 91 94 94 96 99 102 105
36 40 40 40 41 44 48 50 50 48 48 50 55 58 62 62 68 75 78 82 84 85 88 91 93 94 93 91 89 93 96 96
27 28 35 44 53 58 60 61 56 53 53 52 57 62 61 64 72 75 80 83 85 86 88 92 94 91 88 84 83 86 85 80
25 31 40 48 53 57 59 59 57 56 54 55 57 58 61 69 71 75 80 81 82 86 90 91 91 84 80 74 75 76 76 71
36 44 48 50 50 52 55 57 57 54 54 55 56 59 65 68 70 74 77 81 83 86 85 84 84 76 71 66 62 68 72 72
41 45 49 52 54 57 59 59 56 55 54 56 57 60 65 67 68 72 77 80 83 85 83 79 71 71 66 58 57 66 73 78
45 48 51 57 61 63 62 56 53 53 54 53 55 58 61 65 66 68 71 77 80 82 83 75 68 66 68 58 56 59 69 76
48 51 56 61 66 66 60 55 54 54 53 53 55 56 56 60 62 67 67 73 77 76 79 80 75 74 75 70 62 65 71 80
54 58 63 65 67 64 58 56 55 55 55 54 54 54 54 56 57 62 63 68 72 73 80 84 81 74 76 74 83 81 80 81
56 58 64 67 65 60 57 56 56 56 54 53 55 55 55 56 55 57 57 60 63 63 67 72 72 71 67 69 72 72 75 77
54 58 65 65 60 56 55 58 58 54 53 53 54 52 54 57 58 45 50 52 53 47 44 53 54 57 61 63 66 65 61 61
54 56 58 56 55 55 57 59 55 55 53 53 52 52 54 55 56 61 42 41 47 44 45 44 47 53 57 58 55 59 52 48
50 52 53 54 52 54 56 53 53 52 51 52 49 50 52 53 50 49 50 47 41 39 45 43 46 47 50 50 53 48 45 49
50 53 53 53 49 54 53 52 50 49 48 48 47 46 48 47 45 43 42 41 41 41 37 42 43 49 46 47 52 57 59 57
Wind_Direction_500mb
206 219 263 288 265 161 143 108 60 41 25 12 3 356 351 346 340 337 335 333 331 329 328 329 328 325 322 320 318 315 313 311
219 234 254 258 236 212 210 214 79 9 2 358 347 340 336 333 331 329 329 327 326 325 323 321 320 319 317 316 312 308 304 301
229 241 245 244 228 222 228 248 324 350 347 340 333 330 327 325 326 327 327 326 324 322 320 319 317 315 311 308 305 303 302 300
233 237 244 234 227 226 232 241 290 324 330 327 323 323 322 322 322 321 321 321 321 320 319 319 317 314 310 307 304 300 297 295
237 237 235 229 231 236 242 248 275 297 305 309 314 315 314 315 314 314 316 317 317 317 316 315 314 313 313 312 309 304 299 296
237 237 231 228 233 240 249 256 265 275 287 296 303 306 308 310 309 311 313 313 313 312 311 310 310 311 311 308 305 302 299 296
237 233 230 240 242 246 252 253 259 267 276 288 297 301 306 306 307 310 311 312 312 312 312 311 310 309 308 306 302 299 296 294
237 239 242 248 248 251 253 254 257 264 273 286 296 300 303 304 307 309 311 312 313 313 313 313 313 312 311 308 303 299 296 294
239 245 247 250 248 249 252 252 253 260 269 285 294 296 297 302 307 310 313 313 315 315 315 315 316 316 315 312 305 301 298 299
246 256 259 254 252 252 251 248 251 261 272 285 290 292 298 306 310 313 313 314 315 316 317 317 317 319 318 312 305 301 301 303
273 260 264 266 264 255 246 246 255 266 277 285 290 296 305 307 311 314 314 315 316 316 317 318 320 322 317 312 308 306 306 306
263 265 270 266 261 250 246 251 261 270 280 286 290 299 304 308 314 316 316 316 316 316 318 321 324 321 319 315 307 304 307 307
261 268 268 257 251 246 250 257 267 275 280 283 289 299 305 309 314 313 315 316 316 318 320 323 324 321 326 318 308 306 300 299
260 265 260 254 249 249 254 262 273 278 282 285 293 301 306 309 313 315 317 317 318 320 321 325 328 327 330 326 318 309 305 304
260 261 254 250 250 251 257 267 275 281 283 288 296 302 307 311 316 316 319 318 319 322 326 327 325 318 319 326 323 319 314 310
263 264 255 248 250 253 262 270 276 279 284 291 298 304 309 312 316 317 320 321 321 318 314 312 313 319 319 315 314 314 312 309
264 254 246 248 251 260 268 275 278 281 284 291 298 305 309 311 312 315 317 319 320 316 311 311 311 316 316 317 315 315 314 308
260 251 249 252 258 263 270 275 277 280 285 293 300 305 308 309 311 314 316 317 324 331 334 326 323 325 327 323 323 314 321 319
255 253 255 258 262 267 272 273 275 281 287 292 297 301 304 306 309 313 319 324 325 329 341 342 340 338 338 339 336 335 338 340
258 258 260 263 267 270 273 276 278 282 285 289 293 296 299 301 305 309 312 317 325 327 333 334 346 351 345 351 355 356 353 349
Wind_Speed_850mb
23 12 6 4 3 3 3 2 4 6 8 10 13 15 19 23 27 31 35 38 43 48 51 53 54 54 55 55 55 56 56 56
28 20 16 15 11 9 6 3 1 3 9 13 18 23 27 31 35 38 40 43 47 51 56 59 64 68 72 72 72 72 70 67
34 29 26 21 18 15 12 6 4 10 16 21 25 29 34 38 41 45 47 49 53 58 63 69 74 77 81 83 82 85 87 86
42 41 32 28 24 21 16 10 8 14 21 27 34 38 41 46 49 51 55 59 65 74 82 88 91 92 89 88 90 89 89 89
50 44 36 33 27 23 20 17 17 21 26 33 39 42 46 50 52 54 59 67 75 83 90 94 97 96 95 93 90 89 90 93
53 45 41 36 29 26 25 26 29 31 33 38 44 48 51 55 56 59 66 75 81 86 90 92 93 94 92 92 94 95 99 100
45 43 41 35 33 30 33 38 39 38 42 46 51 52 57 59 60 67 76 79 85 87 89 89 89 91 94 94 96 99 102 105
36 40 40 40 41 44 48 50 50 48 48 50 55 58 62 62 68 75 78 82 84 85 88 91 93 94 93 91 89 93 96 96
27 28 35 44 53 58 60 61 56 53 53 52 57 62 61 64 72 75 80 83 85 86 88 92 94 91 88 84 83 86 85 80
25 31 40 48 53 57 59 59 57 56 54 55 57 58 61 69 71 75 80 81 82 86 90 91 91 84 80 74 75 76 76 71
36 44 48 50 50 52 55 57 57 54 54 55 56 59 65 68 70 74 77 81 83 86 85 84 84 76 71 66 62 68 72 72
41 45 49 52 54 57 59 59 56 55 54 56 57 60 65 67 68 72 77 80 83 85 83 79 71 71 66 58 57 66 73 78
45 48 51 57 61 63 62 56 53 53 54 53 55 58 61 65 66 68 71 77 80 82 83 75 68 66 68 58 56 59 69 76
48 51 56 61 66 66 60 55 54 54 53 53 55 56 56 60 62 67 67 73 77 76 79 80 75 74 75 70 62 65 71 80
54 58 63 65 67 64 58 56 55 55 55 54 54 54 54 56 57 62 63 68 72 73 80 84 81 74 76 74 83 81 80 81
56 58 64 67 65 60 57 56 56 56 54 53 55 55 55 56 55 57 57 60 63 63 67 72 72 71 67 69 72 72 75 77
54 58 65 65 60 56 55 58 58 54 53 53 54 52 54 57 58 45 50 52 53 47 44 53 54 57 61 63 66 65 61 61
54 56 58 56 55 55 57 59 55 55 53 53 52 52 54 55 56 61 42 41 47 44 45 44 47 53 57 58 55 59 52 48
50 52 53 54 52 54 56 53 53 52 51 52 49 50 52 53 50 49 50 47 41 39 45 43 46 47 50 50 53 48 45 49
50 53 53 53 49 54 53 52 50 49 48 48 47 46 48 47 45 43 42 41 41 41 37 42 43 49 46 47 52 57 59 57
Wind_Direction_850mb
206 219 263 288 265 161 143 108 60 41 25 12 3 356 351 346 340 337 335 333 331 329 328 329 328 325 322 320 318 315 313 311
219 234 254 258 236 212 210 214 79 9 2 358 347 340 336 333 331 329 329 327 326 325 323 321 320 319 317 316 312 308 304 301
229 241 245 244 228 222 228 248 324 350 347 340 333 330 327 325 326 327 327 326 324 322 320 319 317 315 311 308 305 303 302 300
233 237 244 234 227 226 232 241 290 324 330 327 323 323 322 322 322 321 321 321 321 320 319 319 317 314 310 307 304 300 297 295
237 237 235 229 231 236 242 248 275 297 305 309 314 315 314 315 314 314 316 317 317 317 316 315 314 313 313 312 309 304 299 296
237 237 231 228 233 240 249 256 265 275 287 296 303 306 308 310 309 311 313 313 313 312 311 310 310 311 311 308 305 302 299 296
237 233 230 240 242 246 252 253 259 267 276 288 297 301 306 306 307 310 311 312 312 312 312 311 310 309 308 306 302 299 296 294
237 239 242 248 248 251 253 254 257 264 273 286 296 300 303 304 307 309 311 312 313 313 313 313 313 312 311 308 303 299 296 294
239 245 247 250 248 249 252 252 253 260 269 285 294 296 297 302 307 310 313 313 315 315 315 315 316 316 315 312 305 301 298 299
246 256 259 254 252 252 251 248 251 261 272 285 290 292 298 306 310 313 313 314 315 316 317 317 317 319 318 312 305 301 301 303
273 260 264 266 264 255 246 246 255 266 277 285 290 296 305 307 311 314 314 315 316 316 317 318 320 322 317 312 308 306 306 306
263 265 270 266 261 250 246 251 261 270 280 286 290 299 304 308 314 316 316 316 316 316 318 321 324 321 319 315 307 304 307 307
261 268 268 257 251 246 250 257 267 275 280 283 289 299 305 309 314 313 315 316 316 318 320 323 324 321 326 318 308 306 300 299
260 265 260 254 249 249 254 262 273 278 282 285 293 301 306 309 313 315 317 317 318 320 321 325 328 327 330 326 318 309 305 304
260 261 254 250 250 251 257 267 275 281 283 288 296 302 307 311 316 316 319 318 319 322 326 327 325 318 319 326 323 319 314 310
263 264 255 248 250 253 262 270 276 279 284 291 298 304 309 312 316 317 320 321 321 318 314 312 313 319 319 315 314 314 312 309
264 254 246 248 251 260 268 275 278 281 284 291 298 305 309 311 312 315 317 319 320 316 311 311 311 316 316 317 315 315 314 308
260 251 249 252 258 263 270 275 277 280 285 293 300 305 308 309 311 314 316 317 324 331 334 326 323 325 327 323 323 314 321 319
255 253 255 258 262 267 272 273 275 281 287 292 297 301 304 306 309 313 319 324 325 329 341 342 340 338 338 339 336 335 338 340
258 258 260 263 267 270 273 276 278 282 285 289 293 296 299 301 305 309 312 317 325 327 333 334 346 351 345 351 355 356 353 349